Weather in Mitino

Russia / Kurgan Oblast     55°11′38″N   65°28′40″E
temp.,
°C
wind,
m/s
gust,
m/s
humid.,
%
clouds,
%
prec.,
mm/h
press.,
hPa
HPBL,
m
19 april, mon
mon1923:00−3nne711400 0.0 10291076
02:00−4nne611410 0.0 1031992
05:00−6nne58450 0.0 1033911
08:00−5ne57380 0.0 10341059
11:00−2nne56305 0.0 10341532
14:00+1nne562750 0.0 10332050
17:00+1nne572892 0.0 10322196
20:00−2ene224379 0.0 103314
20 april, tue
tue2023:00−3ene11465 0.0 103310
02:00−3ne22500 0.0 103328
05:00−4ene11500 0.0 103410
08:00−1n22364 0.0 1034451
11:00+2nnw332729 0.0 10331268
14:00+5wnw34275 0.0 10311591
17:00+6wnw56300 0.0 10301720
20:00+3wsw34460 0.0 102947
21 april, wed
wed2123:00+1wsw485729 0.0 1028129
02:00+1w34631 0.0 102855
05:000wnw34720 0.0 102857
08:00+4nnw47601 0.0 1030318
11:00+9nnw46515 0.0 10301220
14:00+11n454379 0.0 10301856
17:00+10ne555075 0.0 10321058
20:00+6ene34635 0.0 103449
22 april, thu
thu2223:00+5ene33655 0.0 103534
02:00+3ese34705 0.0 103642
05:00+2se35705 0.0 103771
08:00+5se56545 0.0 1038288
11:00+10sse554223 0.0 10381028
14:00+12sse55386 0.0 10381558
17:00+12s5636100 0.0 10371570
20:00+9se4947100 0.0 1037203
23 april, fri
fri2323:00+7sse61248100 0.0 1037288
02:00+6sse51155100 0.0 1037228
05:00+4sse4106555 0.0 1037174
08:00+7s61053100 0.0 1037365
11:00+12s673794 0.0 1036986
14:00+14s6732100 0.0 10351700
17:00+13s6731100 0.0 10341650
20:00+9sse474399 0.0 1034116